Novato, CA

1:09 AM PST on December 07, 2019 (GMT -0800)
Gnoss

Weather History for KDVO - August, 2019

Change the Weather History Date:

Saturday, August 31, 2019

  Actual Average (KAPC) Record (KAPC)
Temperature  
Mean Temperature 74 °F -  
Max Temperature 95 °F 82 °F 97 °F (2017)
Min Temperature 53 °F 53 °F 42 °F (1939)
Cooling Degree Days 9    
Growing Degree Days 24 (Base 50)    
Moisture  
Dew Point 55 °F    
Average Humidity 63    
Maximum Humidity 100    
Minimum Humidity 21    
Precipitation  
Precipitation 0.00 in - - ()
Sea Level Pressure  
Sea Level Pressure 29.92 in    
Wind  
Wind Speed 1 mph ()    
Max Wind Speed 15 mph    
Max Gust Speed 13 mph    
Visibility 8.8 miles    
Events      
Averages and records for this station are not official NWS values.
T = Trace of Precipitation, MM = Missing Value Source: Averaged Metar Reports

Daily Weather History Graph

Daily Weather History Graph

Search for Another Location

Airport or City:

Astronomy

Aug. 31, 2019 Rise Set
Actual Time 6:38 AM PDT 7:41 PM PDT
Civil Twilight 6:11 AM PDT 8:08 PM PDT
Nautical Twilight 5:39 AM PDT 8:40 PM PDT
Astronomical Twilight 5:06 AM PDT 9:13 PM PDT
Moon 8:01 AM PDT (8/31) 8:58 PM PDT (8/31)
Length of Visible Light 13h 56m
Length of Day
13h 02m
Waxing Crescent, 3% of the Moon is Illuminated
Aug 31
Waxing Crescent
Sep 5
First Quarter
Sep 13
Full
Sep 21
Last Quarter
Sep 28
New

Hourly Weather History & Observations

Time (PDT) Temp. Heat Index Dew Point Humidity Pressure Visibility Wind Dir Wind Speed Gust Speed Precip Events Conditions
12:15 AM 62.6 °F - 57.2 °F 82% 29.94 in 10.0 mi Calm Calm - N/A   Clear
12:35 AM 60.8 °F - 57.2 °F 88% 29.94 in 10.0 mi Calm Calm - N/A   Clear
12:55 AM 60.8 °F - 57.2 °F 88% 29.94 in 10.0 mi Calm Calm - N/A   Clear
1:15 AM 60.8 °F - 57.2 °F 88% 29.93 in 10.0 mi Calm Calm - N/A   Clear
1:35 AM 59.0 °F - 55.4 °F 88% 29.93 in 10.0 mi Calm Calm - N/A   Clear
1:55 AM 59.0 °F - 55.4 °F 88% 29.93 in 10.0 mi Calm Calm - N/A   Clear
2:15 AM 53.6 °F - 53.6 °F 100% 29.93 in 10.0 mi Calm Calm - N/A   Clear
2:35 AM 57.2 °F - 55.4 °F 94% 29.93 in 10.0 mi Calm Calm - N/A   Clear
2:55 AM 59.0 °F - 57.2 °F 94% 29.93 in 10.0 mi Calm Calm - N/A   Clear
3:15 AM 57.2 °F - 55.4 °F 94% 29.93 in 10.0 mi Calm Calm - N/A   Clear
3:35 AM 57.2 °F - 57.2 °F 100% 29.93 in 10.0 mi Calm Calm - N/A   Clear
3:55 AM 53.6 °F - 51.8 °F 94% 29.93 in 10.0 mi Calm Calm - N/A   Clear
4:15 AM 57.2 °F - 55.4 °F 94% 29.94 in 10.0 mi Calm Calm - N/A   Clear
4:35 AM 57.2 °F - 55.4 °F 94% 29.94 in 10.0 mi Calm Calm - N/A   Clear
4:55 AM 57.2 °F - 57.2 °F 100% 29.94 in 10.0 mi Calm Calm - N/A   Clear
5:15 AM 53.6 °F - 53.6 °F 100% 29.94 in 10.0 mi Calm Calm - N/A   Clear
5:35 AM 57.2 °F - 55.4 °F 94% 29.94 in 10.0 mi Calm Calm - N/A   Clear
5:55 AM 55.4 °F - 55.4 °F 100% 29.94 in 10.0 mi Calm Calm - N/A   Clear
6:15 AM 53.6 °F - 53.6 °F 100% 29.94 in 2.0 mi Calm Calm - N/A   Clear
6:35 AM 53.6 °F - 53.6 °F 100% 29.95 in 8.0 mi Calm Calm - N/A   Clear
6:55 AM 53.6 °F - 53.6 °F 100% 29.95 in 9.0 mi Calm Calm - N/A   Clear
7:15 AM 53.6 °F - 53.6 °F 100% 29.96 in 9.0 mi Calm Calm - N/A   Clear
7:35 AM 55.4 °F - 53.6 °F 94% 29.96 in 9.0 mi Calm Calm - N/A   Clear
7:55 AM 59.0 °F - 57.2 °F 94% 29.97 in 10.0 mi Calm Calm - N/A   Clear
8:15 AM 62.6 °F - 59.0 °F 88% 29.97 in 10.0 mi Calm Calm - N/A   Clear
8:35 AM 64.4 °F - 59.0 °F 83% 29.97 in 10.0 mi Calm Calm - N/A   Clear
8:55 AM 66.2 °F - 59.0 °F 78% 29.98 in 10.0 mi Calm Calm - N/A   Clear
9:15 AM 68.0 °F - 59.0 °F 73% 29.97 in 10.0 mi Calm Calm - N/A   Clear
9:35 AM 69.8 °F - 60.8 °F 73% 29.97 in 10.0 mi Calm Calm - N/A   Clear
9:55 AM 69.8 °F - 60.8 °F 73% 29.97 in 10.0 mi Calm Calm - N/A   Clear
10:15 AM 73.4 °F - 60.8 °F 65% 29.97 in 10.0 mi Calm Calm - N/A   Clear
10:35 AM 73.4 °F - 60.8 °F 65% 29.96 in 10.0 mi Calm Calm - N/A   Clear
10:55 AM 77.0 °F - 60.8 °F 57% 29.96 in 10.0 mi Calm Calm - N/A   Clear
11:15 AM 77.0 °F - 59.0 °F 54% 29.96 in 9.0 mi Calm Calm - N/A   Clear
11:35 AM 80.6 °F 81.5 °F 60.8 °F 51% 29.95 in 8.0 mi Calm Calm - N/A   Clear
11:55 AM 82.4 °F 82.5 °F 59.0 °F 45% 29.95 in 5.0 mi Calm Calm - N/A   Haze
12:15 PM 84.2 °F 83.8 °F 59.0 °F 42% 29.95 in 2.0 mi SSE 8.1 mph - N/A   Haze
12:35 PM 86.0 °F 84.9 °F 57.2 °F 37% 29.94 in 4.0 mi NNW 8.1 mph - N/A   Haze
12:55 PM 86.0 °F 84.9 °F 57.2 °F 37% 29.93 in 2.5 mi Calm Calm - N/A   Haze
1:15 PM 87.8 °F 87.1 °F 59.0 °F 38% 29.92 in 3.0 mi Calm Calm - N/A   Haze
1:35 PM 87.8 °F 87.6 °F 60.8 °F 40% 29.92 in 5.0 mi Variable 5.8 mph - N/A   Haze
1:55 PM 89.6 °F 89.5 °F 60.8 °F 38% 29.91 in 4.0 mi Variable 3.5 mph - N/A   Haze
2:15 PM 89.6 °F 88.9 °F 59.0 °F 36% 29.90 in 4.0 mi Variable 3.5 mph - N/A   Haze
2:35 PM 91.4 °F 90.7 °F 59.0 °F 34% 29.89 in 5.0 mi SE 4.6 mph - N/A   Haze
2:55 PM 91.4 °F 91.4 °F 60.8 °F 36% 29.89 in 5.0 mi Variable 4.6 mph - N/A   Haze
3:15 PM 93.2 °F 93.3 °F 60.8 °F 34% 29.88 in 6.0 mi South 4.6 mph - N/A   Haze
3:35 PM 93.2 °F 92.6 °F 59.0 °F 32% 29.88 in 6.0 mi South 6.9 mph - N/A   Haze
3:55 PM 95.0 °F 92.7 °F 53.6 °F 25% 29.87 in 6.0 mi SW 15.0 mph - N/A   Haze
4:15 PM 93.2 °F - 51.8 °F 24% 29.86 in 10.0 mi SW 13.8 mph - N/A   Clear
4:35 PM 93.2 °F - 50.0 °F 23% 29.87 in 10.0 mi WSW 12.7 mph - N/A   Clear
4:55 PM 93.2 °F - 48.2 °F 21% 29.87 in 10.0 mi NNW 8.1 mph - N/A   Clear
5:15 PM 91.4 °F - 50.0 °F 24% 29.87 in 10.0 mi SSW 9.2 mph - N/A   Clear
5:35 PM 87.8 °F - 51.8 °F 29% 29.86 in 10.0 mi Variable 5.8 mph 12.7 mph N/A   Clear
5:55 PM 89.6 °F - 44.6 °F 21% 29.86 in 10.0 mi NNW 9.2 mph - N/A   Clear
6:15 PM 86.0 °F - 50.0 °F 29% 29.86 in 10.0 mi South 10.4 mph - N/A   Clear
6:35 PM 84.2 °F - 48.2 °F 29% 29.86 in 10.0 mi SE 5.8 mph 12.7 mph N/A   Clear
6:55 PM 82.4 °F - 50.0 °F 32% 29.86 in 10.0 mi Variable 3.5 mph - N/A   Clear
7:15 PM 82.4 °F - 48.2 °F 30% 29.86 in 10.0 mi Variable 4.6 mph - N/A   Clear
7:35 PM 78.8 °F - 50.0 °F 36% 29.86 in 10.0 mi Variable 3.5 mph - N/A   Clear
7:55 PM 77.0 °F - 50.0 °F 39% 29.86 in 10.0 mi East 4.6 mph - N/A   Clear
8:15 PM 75.2 °F - 50.0 °F 41% 29.87 in 10.0 mi East 4.6 mph - N/A   Clear
8:35 PM 73.4 °F - 51.8 °F 47% 29.87 in 10.0 mi East 4.6 mph - N/A   Clear
8:55 PM 73.4 °F - 51.8 °F 47% 29.87 in 10.0 mi Calm Calm - N/A   Clear
9:15 PM 71.6 °F - 51.8 °F 50% 29.88 in 10.0 mi Calm Calm - N/A   Clear
9:35 PM 66.2 °F - 51.8 °F 60% 29.88 in 10.0 mi North 4.6 mph - N/A   Clear
9:55 PM 64.4 °F - 53.6 °F 68% 29.88 in 10.0 mi NE 3.5 mph - N/A   Clear
10:15 PM 64.4 °F - 51.8 °F 64% 29.88 in 10.0 mi Calm Calm - N/A   Clear
10:35 PM 64.4 °F - 53.6 °F 68% 29.89 in 10.0 mi NNE 4.6 mph - N/A   Clear
10:55 PM 66.2 °F - 55.4 °F 68% 29.89 in 10.0 mi Calm Calm - N/A   Clear
11:15 PM 66.2 °F - 55.4 °F 68% 29.89 in 10.0 mi Calm Calm - N/A   Clear
11:35 PM 64.4 °F - 55.4 °F 73% 29.89 in 10.0 mi Calm Calm - N/A   Clear
11:55 PM 66.2 °F - 55.4 °F 68% 29.89 in 10.0 mi Calm Calm - N/A   Clear